Probability
0 0 0 0 0 0 0 0 0 0 0 0 0 0 0 0 0 0 0 0 0 0 0 0 1 2 3 4 5 4 3 3 4 4 4 3 3 3 6 8 5 1 1 1
0 0 0 0 0 0 0 0 0 0 0 0 0 0 0 0 0 0 0 0 0 0 0 0 0 1 2 4 5 4 3 3 3 4 3 3 2 3 7 8 5 2 0 1
0 0 0 0 0 0 0 0 0 0 0 0 0 0 0 0 0 0 0 0 0 0 0 0 0 0 1 3 5 4 3 3 3 3 3 2 2 3 5 6 4 2 0 0
0 0 0 0 0 0 0 0 0 0 0 0 0 0 0 0 0 0 0 0 0 0 0 0 0 0 0 2 4 4 3 3 3 3 3 2 1 2 2 3 2 1 0 0
0 0 0 0 0 0 0 0 0 0 0 0 0 0 0 0 0 0 0 0 0 0 0 0 0 0 1 3 4 4 3 3 3 3 2 1 1 1 1 2 1 0 0 1
0 0 0 0 0 0 0 0 0 0 0 0 0 0 0 0 0 0 0 0 0 0 0 0 0 0 1 3 4 3 3 3 3 2 2 1 0 0 0 1 1 0 0 1
0 0 0 0 0 0 0 0 0 0 0 0 0 0 0 0 0 0 0 0 0 0 0 0 0 0 1 2 3 3 3 3 2 1 1 0 0 0 0 0 0 0 0 1
0 0 0 0 0 0 0 0 0 0 0 0 0 0 0 0 0 0 0 0 0 0 0 0 0 0 1 2 3 3 3 3 2 1 1 0 0 0 0 0 0 0 0 0
0 0 0 0 0 0 0 0 0 0 0 0 0 0 0 0 0 0 0 0 0 0 0 0 0 0 0 1 1 2 2 2 2 2 1 0 0 0 0 0 0 1 0 0
0 0 0 0 0 0 0 0 0 0 0 0 0 0 0 0 0 0 0 0 0 0 0 0 0 0 0 0 0 1 1 1 1 1 1 0 0 0 0 0 0 0 0 0
0 0 0 0 0 0 0 0 0 0 0 0 0 0 0 0 0 0 0 0 0 0 0 0 0 0 0 0 0 0 0 0 0 0 0 0 0 0 0 0 0 0 0 0
0 0 0 0 0 0 0 0 0 0 0 0 0 0 0 0 0 0 0 0 0 0 0 0 0 0 0 0 0 0 0 0 0 0 0 0 0 0 0 0 0 0 0 0
0 0 0 0 0 0 0 0 0 0 0 0 0 0 0 0 0 0 0 0 0 0 0 0 0 0 0 0 0 0 0 0 0 0 0 0 0 0 0 0 0 0 0 0
0 0 0 0 0 0 0 0 0 0 0 0 0 0 0 0 0 0 0 0 0 0 0 0 0 0 0 0 0 0 0 0 0 0 0 0 0 0 0 0 0 0 0 0
0 0 0 0 0 0 0 0 0 0 0 0 0 0 0 0 0 0 0 0 0 0 0 0 0 0 0 0 0 0 0 0 0 0 0 0 0 0 0 0 0 0 0 0
0 0 0 0 0 0 0 0 0 0 0 0 0 0 0 0 0 0 0 0 0 0 0 0 0 0 0 0 0 0 0 0 0 0 0 0 0 0 0 0 0 0 1 1
0 0 0 0 0 0 0 0 0 0 0 0 0 0 0 0 0 0 0 0 0 0 0 0 0 0 0 0 0 0 0 0 0 0 0 0 0 0 0 0 0 1 2 2
0 0 0 0 0 0 0 0 0 0 0 0 0 0 0 0 0 0 0 0 0 0 0 0 0 0 0 0 0 0 0 0 0 0 0 0 0 0 0 0 0 0 1 1
0 0 0 0 0 0 0 0 0 0 0 0 0 0 0 0 0 0 0 0 0 0 0 0 0 0 0 0 0 0 0 0 0 0 0 0 0 0 0 0 0 0 0 0
0 0 0 0 0 0 0 0 0 0 0 0 0 0 0 0 0 0 0 0 0 0 0 0 0 0 0 0 0 0 0 0 0 0 0 0 0 0 0 0 0 0 0 0
0 0 0 0 0 0 0 0 0 0 0 0 0 0 0 0 0 0 0 0 0 0 0 0 0 0 0 0 0 0 0 0 0 0 0 0 0 0 0 0 0 0 0 0
0 0 0 0 0 0 0 0 0 0 0 0 0 0 0 0 0 0 0 0 0 0 0 0 0 0 0 0 0 0 0 0 0 0 0 0 0 0 0 0 0 0 0 0
0 0 0 0 0 0 0 0 0 0 0 0 0 0 0 0 0 0 0 0 0 0 0 0 0 0 0 0 0 0 0 0 0 0 0 0 0 0 0 0 0 0 0 0
0 0 0 0 0 0 0 0 0 0 0 0 0 0 0 0 0 0 0 0 0 0 0 0 0 0 0 0 0 0 0 0 0 0 0 0 0 0 0 0 0 0 0 0
0 0 0 0 0 0 0 0 0 0 0 0 0 0 0 0 0 0 0 0 0 0 0 0 0 0 0 0 0 0 0 0 0 0 0 0 0 0 0 0 0 0 0 0
0 0 0 0 0 0 0 0 0 0 0 0 0 0 0 0 0 0 0 0 0 0 0 0 0 0 0 0 0 0 0 0 0 0 0 0 0 0 0 0 0 0 0 0
Wind_Speed
7 5 7 6 7 7 6 8 10 10 6 7 11 15 15 11 8 7 6 5 4 4 3 2 2 3 3 3 3 4 3 3 3 3 3 3 4 3 4 4 6 5 5 6
5 9 8 5 4 6 8 10 11 10 5 7 11 17 17 12 9 6 5 4 4 3 2 2 2 2 3 3 3 4 3 3 3 4 4 3 4 4 4 4 5 5 5 6
10 3 2 5 6 8 9 9 9 9 10 9 9 12 10 6 5 5 5 4 3 3 2 2 2 3 3 3 3 4 4 4 4 4 3 3 2 3 4 4 5 5 6 6
8 7 5 6 8 8 8 5 6 8 7 6 4 8 6 5 5 6 5 5 4 3 3 2 2 3 3 4 3 3 3 4 4 4 4 6 5 5 5 4 4 5 6 6
6 4 5 8 8 7 5 4 6 8 7 8 7 7 9 5 5 6 6 5 3 3 2 2 2 2 3 3 2 2 3 4 4 4 5 6 5 5 4 4 5 5 6 7
9 4 4 5 4 4 3 5 7 6 3 7 8 8 8 4 5 5 4 3 3 2 2 2 2 2 2 2 1 2 4 4 4 4 5 6 6 6 5 6 5 5 5 5
8 9 6 4 3 3 3 1 2 2 4 8 5 6 7 3 1 3 3 2 1 1 2 2 3 3 2 2 3 3 4 4 4 4 5 5 6 6 7 7 6 5 5 4
4 5 9 7 6 4 6 5 4 4 4 3 3 7 5 1 3 3 2 1 1 1 2 2 3 3 2 3 3 3 4 5 4 4 5 5 6 4 5 6 6 6 5 5
4 3 4 5 4 3 4 5 2 2 4 5 7 5 3 1 2 2 0 1 2 3 3 3 3 3 3 3 4 4 5 5 5 5 5 5 6 5 5 6 6 5 5 5
2 4 3 3 2 4 4 2 2 3 4 6 7 6 3 1 0 1 1 2 3 3 2 2 2 3 3 3 3 4 5 5 5 5 5 4 5 5 6 5 5 6 5 5
2 3 2 3 7 8 6 4 4 4 4 4 5 4 2 1 1 1 3 3 3 4 4 3 3 3 4 4 4 4 4 4 4 4 4 4 4 5 5 5 5 5 5 5
3 2 4 6 3 3 5 6 6 5 5 5 5 6 2 2 1 2 3 4 5 4 4 4 3 4 4 4 4 4 3 3 3 3 3 3 4 4 3 4 4 4 4 5
3 3 3 3 2 2 3 5 6 4 2 5 6 7 1 3 3 4 4 5 5 4 4 4 4 4 5 5 4 4 3 3 2 3 3 3 3 3 4 3 4 3 4 4
3 4 7 7 3 2 4 6 6 6 5 7 10 12 9 8 7 7 6 5 5 5 5 5 4 4 4 4 4 3 3 2 3 3 3 3 4 4 4 3 3 3 4 4
3 5 6 9 8 6 7 8 9 11 11 10 11 13 14 10 9 8 7 6 6 6 6 5 5 5 5 5 4 4 3 3 3 3 3 3 4 4 3 3 3 3 3 4
3 4 4 8 10 9 11 12 12 13 14 16 15 17 11 9 8 7 6 5 6 6 6 5 6 6 6 5 4 4 4 4 3 3 3 3 3 3 4 4 4 4 4 4
5 5 4 6 6 6 11 12 13 11 10 11 14 13 8 8 7 5 5 4 5 5 6 6 6 6 5 5 4 4 4 4 4 4 4 4 4 4 4 4 5 5 4 4
6 6 4 4 4 9 8 4 7 9 9 8 7 6 5 5 5 4 4 4 5 6 6 6 6 6 5 4 4 4 4 3 4 4 4 4 4 5 5 5 5 6 4 4
8 6 4 4 5 8 7 3 3 4 5 4 6 5 5 5 5 4 4 4 4 5 5 5 5 5 5 5 4 4 4 3 4 4 4 5 5 5 5 5 5 5 4 4
6 6 5 5 5 6 2 1 1 1 3 2 2 4 5 5 4 4 5 5 5 5 4 4 5 5 5 5 4 4 4 4 4 4 4 4 5 5 5 5 5 4 4 3
5 6 8 7 6 6 2 1 3 2 4 2 2 3 4 4 4 5 6 6 5 6 5 5 5 4 4 5 4 4 4 5 5 4 4 4 4 5 5 4 4 3 3 3
7 6 6 5 7 7 1 2 2 3 2 2 3 3 4 4 5 5 6 6 6 6 6 5 4 4 4 4 4 5 5 5 4 4 4 4 4 4 4 4 3 2 2 2
6 6 4 6 6 3 1 1 3 3 3 3 3 3 3 4 6 6 6 6 6 6 6 5 5 5 4 4 4 5 5 4 4 4 4 4 4 4 4 2 2 1 1 1
4 2 3 4 5 4 4 4 4 3 3 3 3 3 4 5 6 7 6 6 6 6 6 5 5 5 5 4 5 5 5 4 3 4 4 4 3 4 3 1 0 0 0 0
4 2 4 7 6 6 4 3 4 3 3 3 3 3 4 5 6 6 6 6 6 6 5 5 5 5 5 4 4 5 4 4 3 4 4 3 3 2 2 1 1 1 0 1
6 6 6 6 5 4 4 3 3 3 3 3 3 4 4 4 5 6 6 5 5 6 5 5 5 5 5 5 5 4 4 3 3 3 3 2 2 2 1 1 2 3 2 3
Wind_Direction
192 225 228 224 219 254 287 287 283 282 293 288 273 276 277 274 256 244 241 247 253 246 242 209 220 242 253 259 261 258 252 253 252 236 229 230 239 234 226 219 220 213 216 211
222 233 241 250 251 252 259 269 274 284 296 297 280 278 275 263 244 232 227 229 242 248 259 242 239 244 250 261 260 256 255 258 254 241 238 226 234 233 230 222 220 214 210 211
232 238 209 238 246 252 253 254 271 289 311 278 277 282 257 234 225 222 219 216 229 238 246 261 267 263 261 267 257 258 252 253 249 249 255 255 244 238 231 224 219 216 212 214
250 241 236 247 248 245 264 270 277 288 296 285 284 290 271 228 210 213 210 206 207 230 237 252 273 280 278 277 262 248 257 250 245 240 240 239 236 236 233 225 218 217 215 218
245 201 218 237 244 246 257 308 284 275 271 279 249 251 274 218 214 211 204 197 186 197 216 258 280 284 290 280 253 240 259 256 246 243 239 239 242 243 238 232 222 220 218 219
255 253 238 247 267 258 273 285 270 252 255 261 230 221 272 229 209 195 183 181 174 180 202 256 272 280 300 308 281 258 262 260 255 244 241 242 245 245 241 239 228 222 220 219
241 220 204 212 235 222 219 236 289 245 221 247 225 220 249 270 154 146 151 164 180 207 221 254 279 292 309 298 280 267 267 274 269 251 241 243 247 246 242 241 230 226 222 222
252 232 183 185 206 198 208 210 208 243 256 284 275 240 242 158 86 87 98 121 251 257 255 261 274 279 288 287 283 274 270 270 270 262 252 242 240 243 245 242 236 228 225 226
242 251 141 177 201 210 198 218 251 286 287 277 252 240 246 143 112 108 87 324 292 262 259 266 278 289 288 286 287 283 277 273 266 262 260 248 240 241 249 249 241 236 226 229
262 266 212 161 190 237 250 247 170 203 247 264 266 251 242 197 225 8 333 304 303 306 285 268 280 303 303 287 287 290 284 280 271 262 260 261 256 252 248 247 246 242 228 232
205 234 219 184 204 202 195 212 208 224 238 248 275 270 45 83 46 346 320 322 325 319 312 300 296 300 297 294 288 284 288 290 288 281 271 263 263 257 250 247 248 244 237 230
193 215 249 238 232 235 211 207 190 203 234 232 260 270 16 33 35 356 342 337 325 316 322 321 318 314 312 309 304 292 296 298 293 290 290 274 265 267 264 262 262 255 253 240
174 189 252 251 223 205 233 228 216 220 246 238 243 260 320 353 338 327 317 317 317 322 327 325 325 320 315 313 313 309 307 312 312 310 306 298 283 275 268 269 276 271 269 262
181 207 216 231 246 205 245 246 227 214 227 243 243 266 287 300 308 315 320 322 323 326 330 331 330 325 322 323 318 318 321 317 316 313 303 302 295 283 275 274 278 275 277 275
167 234 243 262 275 261 253 251 234 228 230 240 258 268 277 293 308 315 320 326 332 336 336 332 332 332 330 327 325 333 330 323 323 321 315 309 305 307 304 289 279 283 278 283
189 243 257 259 254 251 258 252 242 238 237 243 260 269 275 294 302 306 313 324 327 330 330 332 335 328 324 323 324 331 328 328 327 319 311 310 311 312 307 301 288 288 286 286
202 218 244 259 268 275 257 239 234 233 230 233 247 260 284 294 305 309 315 324 325 324 329 333 329 321 320 322 325 325 317 322 323 315 312 315 316 310 305 306 300 284 279 281
209 209 229 253 256 241 243 225 218 233 245 241 255 275 293 305 315 330 335 340 335 334 337 336 331 328 324 323 322 315 316 322 317 314 312 315 316 310 309 306 300 291 280 278
205 202 226 229 240 262 267 242 209 218 257 251 261 285 310 323 328 335 355 360 344 332 328 323 321 320 322 323 323 322 318 316 314 311 314 317 312 307 306 301 297 298 300 293
204 204 224 233 240 245 277 31 64 106 265 300 305 309 321 334 319 309 346 352 345 333 326 321 321 320 320 317 320 320 309 310 305 304 306 308 308 305 301 297 298 303 306 299
190 204 220 235 246 258 282 62 75 181 251 340 341 319 318 303 279 301 331 336 332 324 320 321 320 318 314 318 314 305 304 301 300 304 308 308 307 305 299 296 295 303 310 310
194 199 207 214 231 244 108 92 166 248 308 336 325 325 324 317 316 321 324 322 323 322 319 317 312 308 310 316 313 303 297 294 300 302 300 300 300 302 302 294 297 307 321 334
205 204 202 208 228 265 200 243 263 283 297 308 314 317 315 309 307 310 311 312 314 314 311 310 305 300 304 309 309 303 300 301 307 305 301 298 299 298 297 285 290 314 353 8
246 232 253 267 264 276 284 282 278 293 304 314 319 318 312 301 301 303 304 306 306 304 304 306 307 304 301 301 304 302 305 308 311 306 302 300 300 304 311 316 315 10 20 37
255 238 250 262 271 276 269 283 302 311 317 315 315 310 303 302 300 302 303 303 305 306 305 306 303 303 304 306 309 312 314 314 314 308 304 308 310 313 331 351 17 14 327 235
237 232 234 251 266 271 283 303 315 310 312 319 321 314 312 304 298 300 299 300 303 304 306 308 306 305 307 308 302 301 305 304 300 302 308 312 315 328 339 6 14 13 7 10